RH
84 84 85 85 86 86 85 86 86 86 86 86 85 86 86 87 81 30 11 19 23 65 49 6 6 5 5 5 4 4 7 8 7 10 14 15 24 28 29 41 43 35 37 39 33
83 83 84 85 86 87 88 88 87 87 87 86 87 87 87 88 22 8 27 55 52 66 8 5 5 5 5 6 5 7 8 12 10 11 15 16 22 30 35 46 59 51 40 39 43
81 82 83 84 85 88 88 88 88 87 87 86 87 86 87 64 18 8 67 61 57 42 7 5 5 6 6 5 6 11 13 10 14 17 20 24 26 25 38 75 73 84 80 72 63
80 80 82 83 85 85 86 86 85 84 86 86 86 87 86 24 12 10 67 63 65 15 6 5 5 6 6 7 10 15 15 13 16 18 21 33 42 65 65 89 76 75 71 74 80
81 80 81 83 84 86 86 85 85 84 86 86 87 87 32 15 7 13 63 50 12 8 5 5 5 5 6 11 12 17 19 19 23 27 30 36 51 70 84 77 71 69 71 77 79
84 82 81 82 84 86 88 88 88 87 86 86 86 89 26 10 6 7 6 7 5 5 4 4 5 4 6 6 9 18 20 22 22 27 30 39 48 55 81 71 72 70 76 74 78
86 84 82 82 84 85 87 88 87 86 83 82 81 28 13 7 5 6 6 5 4 5 5 4 4 5 8 14 15 18 22 23 24 25 32 29 50 76 69 66 71 69 66 75 80
86 86 82 82 82 83 84 86 86 84 81 80 79 22 10 5 5 5 5 5 4 4 4 4 4 5 7 14 17 17 16 29 21 22 23 25 54 60 58 63 74 71 77 85 86
87 86 84 82 82 82 84 85 81 79 79 72 32 20 8 16 7 4 4 5 4 4 4 4 5 5 11 15 15 15 55 21 23 21 22 23 53 50 45 52 71 71 84 83 86
87 88 87 84 81 83 85 84 82 74 52 22 17 15 6 6 5 4 4 5 5 5 6 6 5 7 8 9 17 43 24 15 18 21 23 30 43 42 42 50 64 75 72 72 74
86 88 88 86 82 84 57 25 21 23 18 11 8 7 6 5 5 6 4 5 5 6 8 7 7 10 10 10 10 11 13 18 21 23 23 32 36 40 39 51 58 57 64 73 76
85 87 88 86 83 85 44 12 11 10 11 7 8 7 6 6 7 6 5 6 7 8 7 7 11 10 9 9 10 11 13 46 24 24 26 29 37 42 38 37 52 58 60 68 64
89 89 87 85 78 55 13 10 8 9 13 7 6 6 6 6 6 6 5 7 8 8 8 10 10 10 10 10 11 14 14 15 16 20 23 29 38 52 44 46 50 55 54 54 59
90 90 88 81 40 9 10 8 7 9 12 9 7 7 6 6 8 6 5 7 7 8 8 9 8 9 9 12 11 16 13 13 16 22 20 31 28 52 55 59 53 50 54 59 53
90 89 87 97 21 9 9 8 8 14 19 7 6 5 5 6 6 7 6 7 9 8 8 14 10 11 12 13 12 15 14 16 15 19 23 24 84 54 71 80 67 58 62 59 50
90 88 82 35 17 8 7 8 13 21 20 9 6 6 6 5 6 7 8 7 7 9 9 11 9 11 11 12 14 14 15 14 14 19 39 34 39 64 55 51 58 67 65 57 51
90 83 64 12 9 7 8 11 20 20 10 9 7 6 6 8 8 9 11 12 14 17 28 13 12 11 12 14 14 16 18 19 19 16 19 26 23 71 49 44 49 64 64 58 52
90 87 50 10 8 8 10 16 27 12 12 10 7 7 9 10 11 11 12 13 12 12 14 17 31 16 13 16 18 16 19 21 33 20 16 14 51 74 46 46 53 56 50 43 60
91 21 11 10 10 10 14 18 18 14 11 10 8 10 11 10 11 12 15 17 17 16 20 19 22 14 14 14 16 19 18 15 23 19 16 37 56 48 46 52 50 50 48 51 43
22 11 10 10 12 13 18 30 17 12 12 11 14 14 17 14 13 13 17 19 19 17 17 20 24 18 16 16 14 15 13 22 17 27 26 37 51 58 53 54 49 51 45 43 45
24 12 11 9 10 13 17 16 13 11 12 14 15 16 16 17 15 16 19 21 20 19 18 20 24 22 18 24 21 18 20 24 25 30 28 26 59 42 40 38 42 43 39 36 40
16 13 10 10 12 10 14 15 32 12 12 14 15 16 18 17 18 16 23 26 22 20 23 23 25 25 20 19 18 20 26 29 34 36 27 26 68 37 32 34 35 39 38 34 33
16 12 10 13 14 12 17 15 14 14 15 14 16 16 15 18 23 19 23 20 21 25 34 27 33 30 28 27 23 25 23 23 28 36 41 30 54 30 33 34 35 33 37 41 37
18 16 12 12 16 16 16 16 20 14 15 14 15 13 14 17 17 21 23 22 21 22 57 41 32 29 27 32 24 28 25 22 29 32 29 36 28 42 32 29 33 34 39 32 34
19 26 30 16 16 18 18 14 15 18 16 14 16 14 17 22 18 21 21 22 20 42 28 32 33 28 26 24 23 24 24 25 27 27 32 28 38 41 37 32 31 32 33 32 36
24 23 22 24 25 19 32 18 18 20 18 19 18 17 19 28 24 28 23 23 26 23 29 29 38 32 31 24 23 26 24 23 23 26 26 27 44 38 30 30 34 35 37 32 33
28 30 31 40 20 18 24 22 20 21 20 18 18 19 24 27 23 23 24 26 28 28 33 33 39 37 62 26 27 42 30 26 25 24 30 36 33 27 36 40 42 45 41 33 43
Wind_Speed
10 10 10 10 9 9 10 10 10 10 11 12 12 13 13 14 20 9 4 6 2 6 4 8 9 10 10 13 9 13 15 8 18 15 12 11 14 19 20 19 20 22 21 15 11
10 10 10 9 10 9 9 9 10 11 11 11 11 12 12 12 15 13 2 4 4 3 13 9 9 7 11 4 4 10 5 17 7 10 12 14 16 12 17 16 15 17 16 16 15
9 9 9 9 10 8 9 9 11 11 11 10 12 12 12 14 14 11 2 5 5 7 14 8 7 12 7 6 3 8 12 9 8 12 13 13 13 15 14 13 13 10 15 14 16
8 8 8 9 8 8 9 11 11 11 10 11 11 12 12 12 0 9 4 7 4 9 11 9 10 15 7 6 7 14 9 8 12 4 9 15 17 22 22 12 13 15 14 16 15
8 8 8 9 8 8 9 11 11 11 10 11 11 10 12 13 12 10 8 7 9 10 10 8 5 5 4 9 12 11 11 13 14 15 18 19 18 14 17 15 11 13 14 14 13
9 9 8 8 8 9 9 9 10 11 9 11 11 11 10 12 9 10 7 8 10 9 5 6 7 10 5 0 6 10 10 12 11 15 14 16 13 6 9 12 11 13 14 12 14
9 9 8 9 9 9 9 8 10 9 9 10 9 8 11 7 4 8 8 9 2 5 10 6 7 12 4 8 11 14 14 14 16 11 16 19 13 10 8 11 12 12 13 15 14
9 9 8 8 9 9 8 7 10 7 8 9 8 11 2 4 3 7 10 8 6 6 6 4 5 7 7 10 11 15 13 10 14 10 7 7 11 12 10 12 13 11 13 12 13
10 9 8 8 8 8 7 8 9 7 6 6 7 10 7 6 10 12 12 9 7 7 5 5 10 8 5 15 13 9 10 8 11 2 2 4 11 7 12 10 14 13 13 11 12
12 9 9 8 7 7 7 5 3 3 7 8 11 10 7 6 9 7 9 7 9 8 11 10 10 11 14 15 2 12 12 5 10 9 5 7 9 10 7 9 11 13 11 11 11
14 11 9 7 6 6 3 6 7 8 11 11 4 1 7 9 9 11 10 11 12 10 16 17 11 6 8 13 9 7 10 5 6 5 5 6 8 8 8 11 11 7 9 9 8
14 12 9 7 6 3 7 6 9 8 7 3 2 2 2 1 9 7 5 10 10 14 6 12 9 7 6 7 6 6 8 15 7 3 6 9 8 6 8 8 14 8 7 12 12
13 12 10 7 3 4 10 6 7 5 8 8 4 4 6 8 4 8 10 10 11 9 10 7 13 3 4 3 10 10 16 14 10 3 12 2 14 15 10 10 10 9 8 7 9
13 12 8 2 2 4 4 4 7 3 7 10 11 5 8 3 5 3 2 8 5 6 5 7 5 3 7 4 9 6 7 9 9 9 13 20 12 19 14 10 7 5 7 3 8
14 11 8 11 13 7 6 7 7 5 4 11 10 7 2 7 11 8 1 7 6 5 7 6 6 3 1 10 10 10 12 14 16 15 17 9 7 8 14 8 7 6 6 5 9
13 8 5 7 8 4 6 5 6 10 5 9 7 11 12 6 2 6 5 3 4 4 8 8 4 5 9 4 4 7 13 17 16 7 7 8 9 15 11 13 6 10 9 8 8
13 6 6 8 3 5 7 8 10 6 6 9 11 9 10 6 3 5 4 2 5 4 10 5 6 6 7 13 4 9 15 12 13 6 9 13 2 9 13 16 11 13 10 9 5
13 8 9 4 6 7 8 10 7 3 2 4 2 7 7 5 5 2 5 8 6 12 6 9 6 8 5 7 11 19 8 9 14 15 15 12 8 7 9 10 14 12 8 6 3
11 7 7 2 5 6 10 11 4 7 2 5 8 12 8 9 6 7 4 11 7 9 11 7 7 4 4 8 8 13 12 17 12 19 15 10 12 10 9 7 4 4 6 2 4
7 7 4 6 4 7 9 6 6 3 4 6 7 9 3 5 8 4 5 6 3 7 7 6 13 5 7 7 3 13 8 10 8 7 9 18 11 9 10 6 4 2 1 4 1
8 5 7 5 5 8 8 7 8 4 2 5 3 1 4 2 9 4 8 8 7 6 7 11 7 1 9 8 11 12 9 7 4 8 9 10 9 9 8 11 9 6 4 10 9
5 3 5 3 8 5 2 4 5 6 7 5 8 8 8 6 7 4 10 11 7 7 5 7 7 8 7 8 4 4 8 7 9 7 7 11 7 4 9 12 8 7 8 8 9
5 3 3 5 4 6 6 7 3 6 6 4 4 7 4 3 3 3 7 7 7 8 9 8 4 9 8 8 2 6 7 8 5 7 6 10 7 8 8 4 10 12 12 10 10
6 4 4 1 3 1 10 10 9 6 7 7 3 1 2 1 1 3 8 4 8 10 5 3 3 6 9 9 5 4 6 9 8 8 12 6 6 7 6 10 7 8 8 7 10
2 4 5 3 5 3 2 5 9 6 3 2 2 4 4 2 2 3 5 9 8 4 5 6 1 1 6 4 4 3 7 7 10 9 6 11 11 9 10 11 9 10 5 10 9
5 5 4 5 3 4 1 1 6 4 5 5 3 3 6 8 8 10 6 2 4 5 5 3 2 8 6 3 1 1 3 5 6 6 8 10 6 4 6 7 9 6 11 10 13
4 2 6 3 3 6 6 3 5 7 8 8 4 1 8 7 7 6 5 4 5 7 6 5 1 6 8 4 6 2 10 10 10 9 10 10 11 8 5 3 6 6 2 6 12
Wind_Direction
293 292 293 293 291 292 291 292 303 302 303 300 306 305 309 310 297 215 211 66 86 186 239 241 227 232 233 254 248 263 276 84 32 50 100 133 79 65 59 64 47 45 71 105 144
293 291 290 293 287 286 291 301 299 300 294 294 301 304 307 317 285 231 76 105 91 148 237 232 224 202 219 218 249 293 29 60 12 52 64 47 106 132 115 94 72 74 70 68 54
295 288 290 288 284 289 290 296 289 289 286 296 299 304 305 304 263 81 130 142 194 230 269 289 273 250 215 224 29 22 30 57 86 73 80 70 60 36 99 53 55 76 61 64 69
299 295 292 287 286 288 291 282 281 284 290 294 301 303 308 258 348 76 122 179 193 276 270 257 225 231 176 115 140 85 50 87 91 61 80 73 74 56 56 78 74 75 71 76 73
318 311 302 296 295 296 281 276 281 281 287 294 298 313 298 227 77 121 138 159 214 242 267 303 301 285 147 123 108 102 93 92 83 73 69 73 68 81 77 81 82 91 85 81 84
332 311 303 303 304 288 275 275 275 276 287 291 295 321 246 254 100 132 165 183 252 241 286 309 15 348 40 83 301 121 122 120 123 110 96 95 85 85 96 102 91 85 86 91 83
322 310 323 317 294 277 269 265 268 274 285 286 303 287 262 71 142 155 189 220 231 271 303 41 331 277 81 105 131 144 146 156 144 140 137 130 81 91 107 108 95 93 95 72 73
328 327 320 305 287 277 270 273 265 267 278 285 302 267 312 83 193 200 197 215 216 256 276 311 284 287 238 115 175 201 192 148 137 154 138 234 106 128 146 130 119 111 89 82 73
330 327 318 304 294 282 284 266 260 264 261 278 247 226 124 140 196 181 199 210 198 232 251 293 244 228 164 192 199 311 195 190 105 112 314 302 110 156 163 155 124 116 101 99 95
330 331 321 308 299 291 283 267 222 224 219 222 260 259 195 86 117 162 197 254 234 229 228 222 214 201 224 224 151 178 259 68 37 64 53 63 111 134 163 107 112 116 111 97 94
331 333 311 307 298 278 181 190 203 195 226 297 67 49 109 107 158 204 188 211 239 236 248 202 212 227 31 27 356 8 352 33 104 102 296 108 142 144 134 118 136 125 113 123 132
329 322 317 315 287 265 268 266 29 348 240 194 150 242 155 264 156 145 194 230 197 231 234 221 91 60 33 13 320 301 300 10 132 157 260 166 150 171 139 154 113 130 131 161 135
323 318 317 314 59 187 260 25 314 311 253 167 161 170 139 261 79 119 237 211 219 190 224 30 92 86 295 245 326 69 336 359 351 330 239 223 194 190 155 136 131 144 154 111 151
323 311 302 311 292 201 192 323 316 315 229 142 180 121 184 223 99 341 337 306 275 94 85 80 106 260 259 50 343 355 328 319 289 265 294 209 291 162 167 155 159 139 107 100 98
319 303 280 232 316 235 19 313 342 244 194 179 143 104 223 243 137 129 325 245 281 132 268 44 175 253 280 18 337 8 332 309 298 267 297 44 64 127 110 154 183 122 96 123 80
319 299 251 194 236 314 285 314 254 236 107 155 155 203 199 170 196 124 158 334 341 280 340 101 38 6 11 283 323 308 278 269 253 267 251 147 250 52 41 37 120 106 108 82 68
328 303 219 310 307 333 302 256 238 276 145 147 177 203 170 130 155 182 150 217 314 195 3 227 146 110 328 310 204 287 334 317 313 329 313 209 302 41 41 35 70 113 111 114 116
326 306 207 275 297 298 272 243 270 78 120 32 241 214 154 161 114 156 232 164 44 327 273 248 175 301 27 13 335 295 340 304 330 314 310 330 61 79 47 59 110 137 146 99 34
319 208 209 42 316 290 260 238 63 69 350 182 201 189 158 172 282 206 3 23 26 357 327 306 66 146 41 350 350 349 332 335 287 268 273 105 95 109 62 67 68 118 137 132 237
264 221 89 311 322 265 250 4 91 71 280 236 248 300 87 103 229 228 125 35 2 11 336 343 302 99 53 295 169 342 313 331 327 305 321 94 81 48 37 52 40 38 335 23 248
255 229 76 306 259 237 255 107 109 86 347 331 46 135 24 47 333 21 53 84 12 352 328 359 298 207 222 40 1 341 12 335 319 328 319 324 84 48 21 39 31 38 22 37 37
279 222 68 280 225 251 157 93 308 111 109 79 49 34 25 347 354 341 52 19 9 328 12 48 312 298 28 61 356 47 7 359 333 328 6 294 81 67 29 46 25 77 32 35 27
284 53 132 260 254 192 126 127 82 118 25 60 81 37 17 37 292 26 100 40 24 26 20 4 68 299 155 166 217 60 11 359 308 259 305 337 90 68 54 85 37 10 58 50 10
283 184 131 215 321 131 176 166 123 86 83 58 93 28 227 54 12 172 129 73 70 72 335 330 302 297 346 43 339 59 18 5 5 354 339 44 20 90 6 16 76 59 49 3 18
324 54 5 77 69 2 247 192 151 143 125 11 124 21 2 259 248 132 113 147 131 152 62 350 340 321 48 40 29 47 34 32 9 16 340 356 37 27 12 13 25 29 1 14 28
340 326 189 87 167 188 63 2 90 125 327 99 21 30 30 44 1 356 332 278 125 142 64 349 85 283 149 115 27 90 97 360 27 359 349 356 41 10 49 340 30 19 16 350 30
2 145 275 168 167 247 54 21 93 110 30 50 42 138 74 32 6 11 5 17 21 332 74 332 221 265 183 91 246 36 22 6 355 356 13 354 6 359 65 92 45 73 319 4 46